We konden geen weer-waarchuwingen ophalen. Ga rechtstreeks naar de Meteoalarm site : www.meteoalarm.eu en controleer daar .



Onweer radar Meer informatie blitzortung!


Regen radar Meer informatie rain snow radar


Bezoek onze andere website:

Template documentation
and downloads

And another site



15 daagse weersverwachting Tromsø (NO)

  • Overzicht
  • Per uur
  • 15 dagen
  • Extra
  • Vergelijk
  • Kaarten
  • Dagkaart
  • Meer »
  • Info
  • Statistieken
  • Directe link
    Temp 6h Neerslag Wind  
 04:01     21:38    Daglengte: 17:37 Vandaag
14:00
11°
10.3 mm
4
20:00
16.9 mm
3
 04:06     21:33    Daglengte: 17:27 Morgen
02:00
3.1 mm
4
08:00
10°
 
5
14:00
12°
 
3
20:00
12°
 
3
 04:11     21:28    Daglengte: 17:17 Vrijdag 19 Aug
02:00
11°
 
2
08:00
13°
 
2
14:00
18°
 
2
20:00
17°
12.2 mm
2
 04:15     21:23    Daglengte: 17:08 Zaterdag 20 Aug
02:00
15°
15.9 mm
1
08:00
16°
25.7 mm
2
Locatie info
Region: Troms
Latitude: 69.6514°N
Longitude: 18.9561°E
0 masl
Postcode: 9008
Temp/Neerslag /Baro Onweer/Dauwpunt
    Temp Baro 1h Neerslag Dauwpunt Wind UV Bewolking  
 04:01     21:38    Daglengte: 17:37 Vandaag
13:00
11°
1007.7 hPa 7.3 mm
48%
10.3°
4
Windvlaag: 2 m/s
83%
14:00
11°
1008.9 hPa 3.0 mm
82%
9.7°
4
Windvlaag: 2.6 m/s
83%
15:00
11°
1009.7 hPa 3.5 mm
82%
8.9°
4
Windvlaag: 4.4 m/s
86%
16:00
10°
1010.3 hPa 3.6 mm
82%
8.2°
3
Windvlaag: 5.8 m/s
86%
17:00
10°
Voelt als: 8.1°
1010.9 hPa 3.3 mm
82%
8.0°
4
Windvlaag: 5.9 m/s
86%
18:00
Voelt als: 7.7°
1011.4 hPa 3.4 mm
82%
7.2°
3
Windvlaag: 3.7 m/s
84%
19:00
Voelt als: 7.9°
1011.7 hPa 3.1 mm
82%
7.4°
3
Windvlaag: 4.1 m/s
86%
20:00
Voelt als: 7.7°
1011.8 hPa
82%
7.7°
3
Windvlaag: 4.7 m/s
86%
21:00
Voelt als: 7.2°
1012.1 hPa
82%
7.9°
4
Windvlaag: 5.2 m/s
86%
22:00
Voelt als: 7.3°
1012.3 hPa
82%
7.9°
4
Windvlaag: 5.7 m/s
85%
23:00
Voelt als: 7.3°
1012.8 hPa
82%
7.7°
4
Windvlaag: 6.5 m/s
85%
 04:06     21:33    Daglengte: 17:27 Morgen
00:00
Voelt als: 7.2°
1013.1 hPa 3.1 mm
82%
7.6°
4
Windvlaag: 6.7 m/s
79%
01:00
Voelt als: 7.3°
1013.7 hPa
82%
7.7°
4
Windvlaag: 6.6 m/s
83%
02:00
Voelt als: 7.3°
1014.2 hPa
82%
7.6°
4
Windvlaag: 6.1 m/s
75%
03:00
Voelt als: 7.2°
1014.7 hPa
78%
7.5°
4
Windvlaag: 6 m/s
65%
04:00
Voelt als: 7.2°
1015.2 hPa
80%
7.6°
4
Windvlaag: 5.8 m/s
38%
05:00
10°
Voelt als: 7.3°
1015.7 hPa
79%
7.5°
4
Windvlaag: 6.5 m/s
23%
06:00
10°
Voelt als: 7.4°
1016.4 hPa
43%
7.5°
4
Windvlaag: 7.4 m/s
32%
07:00
10°
Voelt als: 7.4°
1017.1 hPa
81%
7.6°
5
Windvlaag: 8 m/s
66%
08:00
10°
1017.8 hPa
73%
7.5°
5
Windvlaag: 8 m/s
45%
09:00
10°
1018.9 hPa
73%
7.3°
5
Windvlaag: 7.5 m/s
46%
10:00
11°
1019.5 hPa
65%
7.0°
5
Windvlaag: 6.8 m/s
23%
11:00
11°
1020.2 hPa
21%
6.5°
5
Windvlaag: 5.8 m/s
23%
12:00
11°
1020.8 hPa
18%
5.8°
5
Windvlaag: 5.8 m/s
43%
13:00
12°
1021.2 hPa
17%
5.5°
4
Windvlaag: 5.8 m/s
50%
14:00
12°
1021.4 hPa
15%
5.3°
3
Windvlaag: 4.8 m/s
52%
15:00
13°
1021.2 hPa
14%
4.9°
2
Windvlaag: 4 m/s
47%
16:00
13°
1021.0 hPa
14%
4.5°
1
Windvlaag: 2.4 m/s
49%
17:00
13°
1020.6 hPa
14%
4.4°
2
Windvlaag: -1.8 m/s
61%
18:00
13°
1020.2 hPa
14%
4.8°
3
Windvlaag: -3.2 m/s
50%
19:00
13°
1019.7 hPa
14%
5.0°
3
Windvlaag: -3 m/s
50%
20:00
12°
1019.2 hPa
14%
5.6°
3
Windvlaag: -2.8 m/s
40%
21:00
11°
1019.1 hPa
14%
5.7°
4
Windvlaag: -1.9 m/s
43%
22:00
11°
1018.9 hPa
14%
5.9°
4
Windvlaag: -0.5 m/s
32%
23:00
11°
1018.5 hPa
14%
5.7°
3
Windvlaag: 1.3 m/s
42%
 04:11     21:28    Daglengte: 17:17 Vrijdag 19 Aug
00:00
11°
1018.1 hPa
14%
4.7°
2
Windvlaag: 2.8 m/s
36%
01:00
11°
1017.5 hPa
14%
4.0°
2
Windvlaag: 2.7 m/s
27%
02:00
11°
1017.1 hPa
14%
4.3°
2
Windvlaag: 2.7 m/s
32%
03:00
11°
1016.6 hPa
14%
4.3°
2
Windvlaag: 2.2 m/s
28%
04:00
11°
1016.3 hPa
14%
4.6°
2
Windvlaag: 2.1 m/s
45%
05:00
12°
1015.9 hPa
14%
5.2°
3
Windvlaag: 2.4 m/s
57%
06:00
12°
1015.5 hPa
14%
5.4°
2
Windvlaag: 2.3 m/s
82%
07:00
12°
1015.2 hPa
17%
5.4°
2
Windvlaag: 3.1 m/s
81%
08:00
13°
1014.9 hPa
30%
6.1°
2
Windvlaag: 3.8 m/s
75%
09:00
14°
1014.5 hPa
14%
7.0°
2
Windvlaag: 2.4 m/s
28%
10:00
15°
1014.1 hPa
14%
8.3°
2
Windvlaag: 2.1 m/s
21%
11:00
16°
1013.4 hPa
21%
10.3°
2
Windvlaag: 0.7 m/s
68%
12:00
17°
1013.0 hPa
21%
10.3°
2
Windvlaag: 0.6 m/s
79%
13:00
18°
1012.3 hPa
22%
9.9°
2
Windvlaag: 0.6 m/s
88%
14:00
18°
1011.9 hPa
30%
10.3°
2
Windvlaag: 0.8 m/s
80%
15:00
17°
1011.8 hPa
91%
12.5°
2
Windvlaag: 0.3 m/s
96%
16:00
17°
1011.9 hPa 6.0 mm
100%
15.3°
1
Windvlaag: 0.3 m/s
93%
17:00
16°
1011.5 hPa 6.2 mm
100%
15.8°
1
Windvlaag: 2.4 m/s
91%
18:00
17°
1011.3 hPa
23%
16.1°
1
Windvlaag: 7 m/s
93%
19:00
17°
1011.1 hPa
25%
15.4°
1
Windvlaag: 8.1 m/s
82%
20:00
17°
1011.0 hPa
21%
16.4°
2
Windvlaag: 8.6 m/s
82%
21:00
17°
1011.0 hPa
21%
15.4°
2
Windvlaag: 8 m/s
74%
22:00
17°
1010.7 hPa
21%
15.3°
2
Windvlaag: 5.4 m/s
93%
23:00
17°
1011.1 hPa
21%
14.9°
2
Windvlaag: 3 m/s
93%
 04:15     21:23    Daglengte: 17:08 Zaterdag 20 Aug
00:00
16°
1011.2 hPa
21%
15.8°
2
Windvlaag: 1.4 m/s
79%
01:00
16°
1011.3 hPa 7.7 mm
21%
15.1°
1
Windvlaag: 1 m/s
74%
02:00
15°
1011.4 hPa 8.2 mm
21%
14.7°
1
Windvlaag: 1 m/s
92%
03:00
15°
1011.2 hPa 8.9 mm
21%
13.6°
2
Windvlaag: 3.3 m/s
66%
04:00
15°
1011.1 hPa 8.4 mm
21%
13.7°
2
Windvlaag: 2.6 m/s
75%
05:00
15°
1010.9 hPa 8.4 mm
21%
12.8°
2
Windvlaag: 2.9 m/s
80%
06:00
14°
1011.8 hPa
21%
11.3°
2
Windvlaag: 14.1 m/s
20%
07:00
15°
1011.7 hPa
21%
11.6°
2
Windvlaag: 15 m/s
69%
08:00
16°
1011.5 hPa
21%
12.7°
2
Windvlaag: 14.8 m/s
18%
09:00
17°
1011.6 hPa
21%
14.4°
2
Windvlaag: 14.7 m/s
57%
10:00
18°
1011.6 hPa
21%
16.2°
1
Windvlaag: 9.8 m/s
70%
11:00
19°
1011.2 hPa
21%
17.8°
1
Windvlaag: 8.3 m/s
77%
12:00
20°
1010.5 hPa
21%
17.6°
1
Windvlaag: 8.8 m/s
89%
Temp/Neerslag /Baro Onweer/Dauwpunt
    Temp Baro Neerslag Dauwpunt Wind Bewolking  
 04:01     21:38    Daglengte: 17:37 Vandaag
14:00
11°
1008.9 hPa 10.3 mm 9.7°
4
83%
17:00
10°
Voelt als: 8.1°
1010.9 hPa 10.4 mm 8.0°
4
86%
20:00
Voelt als: 7.7°
1011.8 hPa 6.5 mm 7.7°
3
86%
23:00
Voelt als: 7.3°
1012.8 hPa   7.7°
4
85%
 04:06     21:33    Daglengte: 17:27 Morgen
02:00
Voelt als: 7.3°
1014.2 hPa 3.1 mm 7.6°
4
75%
05:00
10°
Voelt als: 7.3°
1015.7 hPa   7.5°
4
23%
08:00
10°
1017.8 hPa   7.5°
5
45%
11:00
11°
1020.2 hPa   6.5°
5
23%
14:00
12°
1021.4 hPa   5.3°
3
52%
17:00
13°
1020.6 hPa   4.4°
2
61%
20:00
12°
1019.2 hPa   5.6°
3
40%
23:00
11°
1018.5 hPa   5.7°
3
42%
 04:11     21:28    Daglengte: 17:17 Vrijdag 19 Aug
02:00
11°
1017.1 hPa   4.3°
2
32%
05:00
12°
1015.9 hPa   5.2°
3
57%
08:00
13°
1014.9 hPa   6.1°
2
75%
11:00
16°
1013.4 hPa   10.3°
2
68%
14:00
18°
1011.9 hPa   10.3°
2
80%
17:00
16°
1011.5 hPa 12.2 mm 15.8°
1
91%
20:00
17°
1011.0 hPa   16.4°
2
82%
23:00
17°
1011.1 hPa   14.9°
2
93%
 04:15     21:23    Daglengte: 17:08 Zaterdag 20 Aug
02:00
15°
1011.4 hPa 15.9 mm 14.7°
1
92%
05:00
15°
1010.9 hPa 25.7 mm 12.8°
2
80%
08:00
16°
1011.5 hPa   12.7°
2
18%
11:00
19°
1011.2 hPa   17.8°
1
77%
14:00
21°
1009.7 hPa   16.4°
2
97%
17:00
16°
1010.8 hPa 33.7 mm 15.7°
1
1%
20:00
15°
1011.1 hPa 33.7 mm 14.3°
1
1%
23:00
15°
1010.5 hPa 33.7 mm 13.8°
2
1%
 04:20     21:18    Daglengte: 16:58 Zondag 21 Aug
02:00
15°
1008.9 hPa 33.7 mm 13.5°
2
1%
05:00
15°
1006.7 hPa 35.2 mm 14.2°
2
1%
08:00
15°
1004.6 hPa 36.3 mm 14.9°
3
1%
11:00
17°
1002.5 hPa 36.4 mm 15.7°
2
1%
14:00
16°
1002.3 hPa 36.4 mm 15.4°
1
1%
17:00
15°
1002.8 hPa 36.9 mm 14.8°
1
1%
20:00
16°
1003.0 hPa 37.0 mm 14.6°
3
1%
23:00
14°
1004.8 hPa 38.8 mm 13.8°
2
1%
 04:24     21:13    Daglengte: 16:49 Maandag 22 Aug
02:00
13°
1006.4 hPa 40.7 mm 13.2°
2
1%
05:00
12°
1007.5 hPa 41.0 mm 11.5°
2
1%
08:00
12°
1007.9 hPa 41.3 mm 10.5°
1
1%
11:00
13°
1007.6 hPa 41.5 mm 11.9°
2
1%
14:00
15°
1007.0 hPa 41.5 mm 12.6°
2
1%
17:00
15°
1005.4 hPa 41.7 mm 12.4°
2
1%
20:00
13°
1005.3 hPa 43.2 mm 10.8°
2
1%
23:00
12°
1005.7 hPa 43.8 mm 11.1°
2
1%
 04:28     21:08    Daglengte: 16:40 Dinsdag 23 Aug
02:00
12°
1006.3 hPa 45.5 mm 11.6°
2
1%
05:00
11°
1007.2 hPa 48.1 mm 11.5°
2
1%
08:00
10°
1010.2 hPa 56.3 mm 9.9°
2
1%
11:00
10°
1011.7 hPa 59.9 mm 9.4°
4
1%
14:00
11°
1014.2 hPa 61.8 mm 9.6°
4
1%
17:00
12°
1016.7 hPa 63.0 mm 8.4°
9
1%
20:00
11°
1019.6 hPa 63.6 mm 8.8°
12
1%
23:00
10°
1022.7 hPa 64.4 mm 8.5°
5
1%
 04:33     21:03    Daglengte: 16:30 Woensdag 24 Aug
02:00
10°
1024.4 hPa 64.9 mm 7.9°
3
1%
05:00
Voelt als: 7.2°
1024.4 hPa 65.1 mm 7.4°
4
1%
08:00
12°
1023.9 hPa 65.1 mm 7.5°
3
1%
11:00
14°
1023.1 hPa   7.3°
3
1%
14:00
15°
1022.6 hPa 130.2 mm 7.7°
3
1%
20:00
13°
1022.9 hPa 130.2 mm 8.0°
1
1%
 04:37     20:58    Daglengte: 16:21 Donderdag 25 Aug
02:00
13°
1023.0 hPa 130.2 mm 3.4°
3
1%
08:00
16°
1021.7 hPa 130.2 mm 6.4°
3
0%
14:00
19°
1020.6 hPa 130.2 mm 7.0°
3
1%
20:00
16°
1021.1 hPa 130.2 mm 11.3°
2
1%
 04:41     20:53    Daglengte: 16:12 Vrijdag 26 Aug
02:00
14°
1021.5 hPa 130.2 mm 8.8°
3
1%
08:00
16°
1021.1 hPa 130.2 mm 9.6°
3
1%
14:00
14°
1024.5 hPa 130.5 mm 12.2°
1
1%
20:00
14°
1027.3 hPa 134.0 mm 12.4°
1
1%
 04:46     20:48    Daglengte: 16:02 Zaterdag 27 Aug
02:00
11°
1028.6 hPa 134.0 mm 10.6°
1
1%
08:00
12°
1020.7 hPa 0.7 mm 8.8°
2
67%
14:00
14°
1020.4 hPa 0.4 mm 9.7°
3
67%
20:00
12°
1020.0 hPa 1.3 mm 9.6°
2
76%
 04:50     20:43    Daglengte: 15:53 Zondag 28 Aug
02:00
11°
1020.2 hPa 1.4 mm 8.6°
3
75%
08:00
12°
1020.6 hPa 1.2 mm 8.9°
3
77%
14:00
13°
1021.6 hPa 0.5 mm 9.3°
3
82%
20:00
11°
1021.5 hPa 1.0 mm 8.6°
2
72%
 04:54     20:38    Daglengte: 15:44 Maandag 29 Aug
02:00
10°
1021.1 hPa 0.7 mm 7.5°
2
75%
08:00
11°
1020.5 hPa 0.8 mm 8.1°
2
77%
14:00
13°
1020.1 hPa 0.8 mm 9.0°
3
73%
20:00
11°
1019.5 hPa 1.1 mm 8.8°
2
76%
 04:58     20:33    Daglengte: 15:35 Dinsdag 30 Aug
02:00
10°
Voelt als: 8.8°
1019.2 hPa 1.8 mm 7.7°
2
80%
08:00
10°
1018.8 hPa 1.2 mm 7.8°
3
79%
14:00
12°
1018.8 hPa 0.8 mm 7.7°
3
80%
20:00
10°
1017.8 hPa 1.2 mm 7.6°
3
78%
 05:02     20:29    Daglengte: 15:27 Woensdag 31 Aug
02:00
Voelt als: 7.4°
1016.8 hPa 1.3 mm 7.0°
3
83%
08:00
10°
1015.8 hPa 1.2 mm 7.5°
2
86%
14:00
12°
1015.3 hPa 1.3 mm 8.1°
2
83%
20:00
10°
Voelt als: 9.4°
1014.6 hPa 1.3 mm 7.3°
2
78%
 05:06     20:24    Daglengte: 15:18 Donderdag 01 Sep
02:00
Voelt als: 7.7°
1014.0 hPa 0.7 mm 6.8°
2
79%
08:00
10°
Voelt als: 9.0°
1012.9 hPa 0.5 mm 7.0°
2
80%
  CAPE Lifted Index Hail Supercell Tornado SRH 3km CL BTM PRES CL TOP PRES Swiss DWD icon SMHI TS
 04:01     21:38    Daglengte: 17:37 Vandaag
13:00 5 J/kg 5.4 K 0 % 0 % 0 % 0 m²/s² 0 0 5.43 61
14:00 8 J/kg 6.9 K 0 % 0 % 0 % 0 m²/s² 0 0 6.93 61
15:00 13 J/kg 8.2 K 0 % 0 % 0 % 0 m²/s² 0 0 8.29 61
16:00 12 J/kg 10.4 K 0 % 0 % 0 % 0 m²/s² 0 0 10.43 61
17:00 16 J/kg 10.9 K 0 % 0 % 0 % 0 m²/s² 0 0 10.93 61
18:00 7 J/kg 12.4 K 0 % 0 % 0 % 0 m²/s² 0 0 12.52 61
19:00 10 J/kg 14.6 K 0 % 0 % 0 % 0 m²/s² 0 0 14.69 61
20:00 32 J/kg 14.1 K 0 % 0 % 0 % 0 m²/s² 0 0 14.28 61
21:00 38 J/kg 13.5 K 0 % 0 % 0 % 0 m²/s² 0 0 13.98 61
22:00 28 J/kg 13.3 K 0 % 0 % 0 % 0 m²/s² 0 0 15.88 61
23:00 25 J/kg 12.5 K 0 % 0 % 0 % 0 m²/s² 0 0 17.87 61
 04:06     21:33    Daglengte: 17:27 Morgen
00:00 20 J/kg 12.1 K 0 % 0 % 0 % 0 m²/s² 0 0 17.59 61
01:00 34 J/kg 11.0 K 0 % 0 % 0 % 0 m²/s² 0 0 16.61 3
02:00 54 J/kg 10.0 K 0 % 0 % 0 % 0 m²/s² 0 0 15.43 3
03:00 46 J/kg 9.1 K 0 % 0 % 0 % 0 m²/s² 0 0 14.2 3
04:00 49 J/kg 8.3 K 0 % 0 % 0 % 0 m²/s² 0 0 12.89 3
05:00 48 J/kg 7.5 K 0 % 0 % 0 % 0 m²/s² 0 0 11.85 3
06:00 49 J/kg 7.3 K 0 % 0 % 0 % 0 m²/s² 0 0 11.74 3
07:00 68 J/kg 7.0 K 0 % 0 % 0 % 0 m²/s² 0 0 12.04 3
08:00 71 J/kg 8.1 K 0 % 0 % 0 % 0 m²/s² 0 0 13.74 3
09:00 47 J/kg 9.9 K 0 % 0 % 0 % 0 m²/s² 0 0 15.72 3
10:00 47 J/kg 10.6 K 0 % 0 % 0 % 0 m²/s² 0 0 16.78 2
11:00 54 J/kg 10.7 K 0 % 0 % 0 % 0 m²/s² 0 0 17.3 2
12:00 30 J/kg 11.7 K 0 % 0 % 0 % 0 m²/s² 0 0 18.75 3
13:00 20 J/kg 12.4 K 0 % 0 % 0 % 0 m²/s² 0 0 19.72 3
14:00 18 J/kg 11.9 K 0 % 0 % 0 % 0 m²/s² 0 0 19.25 3
15:00 12 J/kg 11.4 K 0 % 0 % 0 % 0 m²/s² 0 0 17.64 3
16:00 4 J/kg 11.2 K 0 % 0 % 0 % 0 m²/s² 0 0 16.36 3
17:00 0 J/kg 11.1 K 0 % 0 % 0 % 0 m²/s² 0 0 15.75 3
18:00 0 J/kg 11.2 K 0 % 0 % 0 % 0 m²/s² 0 0 15.31 3
19:00 0 J/kg 11.4 K 0 % 0 % 0 % 0 m²/s² 0 0 16.59 3
20:00 0 J/kg 10.5 K 0 % 0 % 0 % 0 m²/s² 0 0 16.5 3
21:00 0 J/kg 10.5 K 0 % 0 % 0 % 0 m²/s² 0 0 17.07 3
22:00 0 J/kg 10.7 K 0 % 0 % 0 % 0 m²/s² 0 0 17.72 2
23:00 0 J/kg 10.8 K 0 % 0 % 0 % 0 m²/s² 0 0 18.63 3
 04:11     21:28    Daglengte: 17:17 Vrijdag 19 Aug
00:00 0 J/kg 11.1 K 0 % 0 % 0 % 0 m²/s² 0 0 19.59 3
01:00 0 J/kg 11.4 K 0 % 0 % 0 % 0 m²/s² 0 0 20.28 3
02:00 0 J/kg 10.6 K 0 % 0 % 0 % 0 m²/s² 0 0 17.47 3
03:00 0 J/kg 10.3 K 0 % 0 % 0 % 0 m²/s² 0 0 14.44 3
04:00 0 J/kg 9.6 K 0 % 0 % 0 % 0 m²/s² 0 0 13.62 3
05:00 0 J/kg 8.8 K 0 % 0 % 0 % 0 m²/s² 0 0 14.41 3
06:00 0 J/kg 8.4 K 0 % 0 % 0 % 0 m²/s² 0 0 14.88 3
07:00 0 J/kg 7.9 K 0 % 0 % 0 % 0 m²/s² 0 0 12.25 3
08:00 0 J/kg 7.4 K 0 % 0 % 0 % 0 m²/s² 0 0 8.9 3
09:00 0 J/kg 6.8 K 0 % 0 % 0 % 0 m²/s² 0 0 7.01 3
10:00 0 J/kg 5.6 K 0 % 0 % 0 % 0 m²/s² 0 0 5.63 2
11:00 0 J/kg 4.2 K 0 % 0 % 0 % 0 m²/s² 0 0 4.41 2
12:00 0 J/kg 4.2 K 0 % 0 % 0 % 0 m²/s² 0 0 4.56 3
13:00 0 J/kg 2.9 K 0 % 0 % 0 % 0 m²/s² 0 0 3.08 3
14:00 1 J/kg 3.0 K 0 % 0 % 0 % 0 m²/s² 0 0 3.39 3
15:00 2 J/kg 2.0 K 0 % 0 % 0 % 0 m²/s² 0 0 2.03 61
16:00 0 J/kg 1.7 K 0 % 0 % 0 % 0 m²/s² 0 0 1.73 61
17:00 0 J/kg 1.1 K 0 % 0 % 0 % 0 m²/s² 0 0 1.13 61
18:00 8 J/kg 0.9 K 0 % 0 % 0 % 0 m²/s² 0 0 1.47 3
19:00 24 J/kg 0.2 K 0 % 0 % 0 % 0 m²/s² 0 0 1.25 3
20:00 59 J/kg -0.3 K 0 % 0 % 0 % 0 m²/s² 0 0 1.41 3
21:00 0 J/kg -0.3 K 0 % 0 % 0 % 0 m²/s² 0 0 2.61 3
22:00 0 J/kg -0.3 K 0 % 0 % 0 % 0 m²/s² 0 0 2.85 3
23:00 0 J/kg -0.1 K 0 % 0 % 0 % 0 m²/s² 0 0 0.74 3
 04:15     21:23    Daglengte: 17:08 Zaterdag 20 Aug
00:00 70 J/kg 1.1 K 0 % 0 % 0 % 0 m²/s² 0 0 1.28 3
01:00 2 J/kg 1.1 K 0 % 0 % 0 % 0 m²/s² 0 0 1.19 3
02:00 0 J/kg -0.6 K 0 % 0 % 0 % 0 m²/s² 0 0 -0.24 3
03:00 0 J/kg -1.1 K 0 % 0 % 0 % 0 m²/s² 0 0 -1.1 2
04:00 0 J/kg -0.5 K 0 % 0 % 0 % 0 m²/s² 0 0 -0.47 3
05:00 0 J/kg 0.1 K 0 % 0 % 0 % 0 m²/s² 0 0 0.37 3
06:00 0 J/kg 0.3 K 0 % 0 % 0 % 0 m²/s² 0 0 1.02 2
07:00 0 J/kg 0.4 K 0 % 0 % 0 % 0 m²/s² 0 0 0.79 3
08:00 9 J/kg 0.5 K 0 % 0 % 0 % 0 m²/s² 0 0 1.31 2
09:00 69 J/kg -0.2 K 0 % 0 % 0 % 0 m²/s² 0 0 0.07 3
10:00 76 J/kg 0.3 K 0 % 0 % 0 % 0 m²/s² 0 0 0.39 3
11:00 153 J/kg 0.6 K 0 % 0 % 0 % 0 m²/s² 0 0 0.6 3
12:00 126 J/kg 0.0 K 0 % 0 % 0 % 0 m²/s² 0 0 1.11 3
Temp Baro Wind Neerslag
  EWN Forecast EWN WRFDA DWD ICON FMI HIRLAM MET Norway GFS
 04:01     21:38    Daglengte: 17:37 Vandaag
14:00 11.0° 1008.9 hPa 4.1 m/s 10.3 mm 10.7° 1006.5 hPa 7.1 m/s 21.3 mm 11.5° 1009.0 hPa 1.9 m/s 7.2 mm 10.1° 1009.3 hPa 5.5 m/s 0.0 mm 10.6° 1008.8 hPa 4.4 m/s
17:00 9.9° 1010.9 hPa 3.5 m/s 10.4 mm 9.4° 1009.0 hPa 5.5 m/s 40.2 mm 9.8° 1011.0 hPa 2.2 m/s 2.6 mm 9.3° 1011.1 hPa 4.5 m/s 0.0 mm 9.3° 1011.7 hPa 2.0 m/s
20:00 9.4° 1011.8 hPa 3.3 m/s 6.5 mm 9.9° 1009.8 hPa 4.1 m/s 43.0 mm 9.2° 1012.0 hPa 1.4 m/s 1.9 mm 8.7° 1011.8 hPa 4.3 m/s 0.0 mm 9.5° 1012.5 hPa 2.0 m/s
23:00 9.4° 1012.8 hPa 3.8 m/s 0.0 mm 8.7° 1011.1 hPa 3.5 m/s 43.5 mm 8.6° 1013.0 hPa 2.0 m/s 4.8 mm 9.3° 1012.7 hPa 4.1 m/s 0.0 mm 9.9° 1013.6 hPa 3.0 m/s
 04:06     21:33    Daglengte: 17:27 Morgen
02:00 9.4° 1014.2 hPa 3.9 m/s 3.1 mm 8.0° 1012.3 hPa 3.5 m/s 43.8 mm 8.8° 1014.4 hPa 1.7 m/s 0.5 mm 9.4° 1014.4 hPa 4.2 m/s 0.0 mm 9.8° 1015.0 hPa 3.7 m/s
05:00 9.5° 1015.7 hPa 4.3 m/s 0.0 mm 8.9° 1013.6 hPa 4.0 m/s 44.7 mm 9.2° 1015.8 hPa 2.5 m/s 0.2 mm 9.4° 1015.8 hPa 4.7 m/s 0.0 mm 9.7° 1016.0 hPa 3.9 m/s
08:00 10.1° 1017.8 hPa 5.0 m/s 0.0 mm 10.3° 1016.0 hPa 5.4 m/s 45.5 mm 9.8° 1018.0 hPa 3.2 m/s 0.0 mm 9.9° 1017.7 hPa 5.2 m/s 0.0 mm 10.2° 1018.1 hPa 3.5 m/s
11:00 10.9° 1020.2 hPa 4.9 m/s 0.0 mm 10.9° 1018.2 hPa 4.4 m/s 46.6 mm 10.8° 1020.4 hPa 5.0 m/s 0.1 mm 10.8° 1020.4 hPa 5.3 m/s 0.0 mm 11.2° 1019.9 hPa 4.2 m/s
14:00 12.3° 1021.4 hPa 3.4 m/s 0.0 mm 12.4° 1019.1 hPa 4.1 m/s 47.4 mm 11.8° 1021.7 hPa 3.4 m/s 0.0 mm 12.4° 1021.8 hPa 4.3 m/s 0.0 mm 11.7° 1020.7 hPa 1.1 m/s
17:00 12.6° 1020.6 hPa 1.8 m/s 0.0 mm 13.2° 1019.2 hPa 0.6 m/s 47.4 mm 12.5° 1020.7 hPa 0.8 m/s 0.0 mm 13.2° 1021.6 hPa 1.8 m/s 0.0 mm 12.8° 1019.8 hPa 1.8 m/s
20:00 12.2° 1019.2 hPa 3.2 m/s 0.0 mm 12.6° 1018.1 hPa 3.2 m/s 47.4 mm 12.2° 1019.4 hPa 1.9 m/s 0.0 mm 12.4° 1020.4 hPa 2.7 m/s 0.0 mm 10.5° 1018.9 hPa 2.8 m/s
23:00 10.9° 1018.5 hPa 2.9 m/s 0.0 mm 10.6° 1017.2 hPa 4.8 m/s 47.4 mm 10.0° 1018.8 hPa 1.4 m/s 0.0 mm 10.9° 1019.3 hPa 3.3 m/s 0.0 mm 9.6° 1018.4 hPa 3.5 m/s
 04:11     21:28    Daglengte: 17:17 Vrijdag 19 Aug
02:00 11.4° 1017.1 hPa 2.4 m/s 0.0 mm 11.3° 1015.9 hPa 6.9 m/s 47.4 mm 9.8° 1017.4 hPa 0.7 m/s 0.0 mm 12.6° 1017.8 hPa 6.1 m/s 0.0 mm 9.6° 1017.5 hPa 4.3 m/s
05:00 11.6° 1015.9 hPa 2.7 m/s 0.0 mm 11.6° 1015.1 hPa 6.8 m/s 47.4 mm 10.7° 1016.1 hPa 1.0 m/s 0.0 mm 12.9° 1016.5 hPa 6.3 m/s 0.0 mm 10.0° 1016.4 hPa 4.7 m/s
08:00 13.0° 1014.9 hPa 2.5 m/s 0.0 mm 15.2° 1013.9 hPa 6.8 m/s 47.4 mm 12.5° 1015.1 hPa 0.3 m/s 0.0 mm 14.0° 1015.3 hPa 6.1 m/s 0.0 mm 12.5° 1015.5 hPa 5.0 m/s
11:00 16.3° 1013.4 hPa 1.9 m/s 0.0 mm 16.6° 1013.4 hPa 6.0 m/s 47.4 mm 16.6° 1013.7 hPa 0.3 m/s 0.0 mm 13.0° 1015.0 hPa 4.9 m/s
14:00 18.4° 1011.9 hPa 1.8 m/s 0.0 mm 21.0° 1011.9 hPa 4.6 m/s 47.4 mm 18.5° 1012.4 hPa 0.6 m/s 0.0 mm 16.8° 1013.9 hPa 3.7 m/s
17:00 16.5° 1011.5 hPa 1.0 m/s 12.2 mm 16.6° 1012.2 hPa 1.1 m/s 51.4 mm 14.8° 1011.9 hPa 0.6 m/s 0.6 mm 17.0° 1013.3 hPa 1.3 m/s
20:00 17.4° 1011.0 hPa 1.9 m/s 0.0 mm 17.8° 1011.1 hPa 1.5 m/s 55.8 mm 14.2° 1011.7 hPa 0.8 m/s 0.0 mm 15.4° 1013.5 hPa 2.4 m/s
23:00 16.5° 1011.1 hPa 2.0 m/s 0.0 mm 18.1° 1010.8 hPa 5.5 m/s 55.9 mm 13.4° 1012.3 hPa 0.7 m/s 0.0 mm 14.6° 1013.3 hPa 2.8 m/s
 04:15     21:23    Daglengte: 17:08 Zaterdag 20 Aug
02:00 15.3° 1011.4 hPa 1.3 m/s 15.9 mm 17.2° 1009.0 hPa 4.0 m/s 67.1 mm 13.4° 1012.8 hPa 0.5 m/s 0.0 mm 13.9° 1012.8 hPa 2.2 m/s
05:00 14.9° 1010.9 hPa 1.8 m/s 25.7 mm 19.3° 1005.3 hPa 6.7 m/s 74.4 mm 12.8° 1013.4 hPa 0.6 m/s 0.0 mm 13.9° 1011.1 hPa 2.9 m/s
08:00 15.9° 1011.5 hPa 1.7 m/s 0.0 mm 20.9° 1005.2 hPa 8.1 m/s 75.2 mm 14.7° 1013.1 hPa 0.1 m/s 0.0 mm 17.0° 1009.6 hPa 2.8 m/s
11:00 18.8° 1011.2 hPa 1.0 m/s 0.0 mm 19.4° 1006.6 hPa 4.7 m/s 77.7 mm 18.7° 1012.4 hPa 0.1 m/s 0.0 mm 15.7° 1007.9 hPa 0.9 m/s
14:00 20.6° 1009.7 hPa 1.7 m/s 0.0 mm 21.6° 1007.4 hPa 6.2 m/s 82.1 mm 20.3° 1010.3 hPa 0.6 m/s 0.0 mm 14.7° 1009.5 hPa 1.1 m/s
17:00 16.2° 1010.8 hPa 0.7 m/s 33.7 mm 16.2° 1010.8 hPa 0.7 m/s 33.7 mm
20:00 15.0° 1011.1 hPa 0.7 m/s 33.7 mm 15.0° 1011.1 hPa 0.7 m/s 33.7 mm
23:00 15.2° 1010.5 hPa 1.8 m/s 33.7 mm 15.2° 1010.5 hPa 1.8 m/s 33.7 mm
 04:20     21:18    Daglengte: 16:58 Zondag 21 Aug
02:00 14.6° 1008.9 hPa 1.7 m/s 33.7 mm 14.6° 1008.9 hPa 1.7 m/s 33.7 mm
05:00 14.7° 1006.7 hPa 1.9 m/s 35.2 mm 14.7° 1006.7 hPa 1.9 m/s 35.2 mm
08:00 15.3° 1004.6 hPa 2.5 m/s 36.3 mm 15.3° 1004.6 hPa 2.5 m/s 36.3 mm
11:00 17.1° 1002.5 hPa 1.9 m/s 36.4 mm 17.1° 1002.5 hPa 1.9 m/s 36.4 mm
14:00 16.1° 1002.3 hPa 1.3 m/s 36.4 mm 16.1° 1002.3 hPa 1.3 m/s 36.4 mm
17:00 15.1° 1002.8 hPa 1.3 m/s 36.9 mm 15.1° 1002.8 hPa 1.3 m/s 36.9 mm
20:00 16.1° 1003.0 hPa 2.9 m/s 37.0 mm 16.1° 1003.0 hPa 2.9 m/s 37.0 mm
23:00 13.9° 1004.8 hPa 2.4 m/s 38.8 mm 13.9° 1004.8 hPa 2.4 m/s 38.8 mm
 04:24     21:13    Daglengte: 16:49 Maandag 22 Aug
02:00 13.3° 1006.4 hPa 1.8 m/s 40.7 mm 13.3° 1006.4 hPa 1.8 m/s 40.7 mm
05:00 12.3° 1007.5 hPa 2.2 m/s 41.0 mm 12.3° 1007.5 hPa 2.2 m/s 41.0 mm
08:00 12.3° 1007.9 hPa 1.4 m/s 41.3 mm 12.3° 1007.9 hPa 1.4 m/s 41.3 mm
11:00 13.3° 1007.6 hPa 1.7 m/s 41.5 mm 13.3° 1007.6 hPa 1.7 m/s 41.5 mm
14:00 14.8° 1007.0 hPa 2.4 m/s 41.5 mm 14.8° 1007.0 hPa 2.4 m/s 41.5 mm
17:00 15.5° 1005.4 hPa 2.4 m/s 41.7 mm 15.5° 1005.4 hPa 2.4 m/s 41.7 mm
20:00 13.4° 1005.3 hPa 1.7 m/s 43.2 mm 13.4° 1005.3 hPa 1.7 m/s 43.2 mm
23:00 12.0° 1005.7 hPa 1.8 m/s 43.8 mm 12.0° 1005.7 hPa 1.8 m/s 43.8 mm
 04:28     21:08    Daglengte: 16:40 Dinsdag 23 Aug
02:00 11.8° 1006.3 hPa 1.5 m/s 45.5 mm 11.8° 1006.3 hPa 1.5 m/s 45.5 mm
05:00 11.5° 1007.2 hPa 1.8 m/s 48.1 mm 11.5° 1007.2 hPa 1.8 m/s 48.1 mm
08:00 10.4° 1010.2 hPa 2.1 m/s 56.3 mm 10.4° 1010.2 hPa 2.1 m/s 56.3 mm
11:00 10.4° 1011.7 hPa 3.6 m/s 59.9 mm 10.4° 1011.7 hPa 3.6 m/s 59.9 mm
14:00 11.1° 1014.2 hPa 3.7 m/s 61.8 mm 11.1° 1014.2 hPa 3.7 m/s 61.8 mm
17:00 11.7° 1016.7 hPa 9.0 m/s 63.0 mm 11.7° 1016.7 hPa 9.0 m/s 63.0 mm
20:00 10.6° 1019.6 hPa 11.8 m/s 63.6 mm 10.6° 1019.6 hPa 11.8 m/s 63.6 mm
23:00 10.3° 1022.7 hPa 5.1 m/s 64.4 mm 10.3° 1022.7 hPa 5.1 m/s 64.4 mm
 04:33     21:03    Daglengte: 16:30 Woensdag 24 Aug
02:00 10.3° 1024.4 hPa 3.5 m/s 64.9 mm 10.3° 1024.4 hPa 3.5 m/s 64.9 mm
05:00 9.5° 1024.4 hPa 4.4 m/s 65.1 mm 9.5° 1024.4 hPa 4.4 m/s 65.1 mm
08:00 11.5° 1023.9 hPa 3.1 m/s 65.1 mm 11.5° 1023.9 hPa 3.1 m/s 65.1 mm
11:00 13.7° 1023.1 hPa 3.3 m/s 65.1 mm 13.7° 1023.1 hPa 3.3 m/s 65.1 mm
14:00 14.8° 1022.6 hPa 2.6 m/s 65.1 mm 14.8° 1022.6 hPa 2.6 m/s 65.1 mm
20:00 13.0° 1022.9 hPa 1.1 m/s 65.1 mm 13.0° 1022.9 hPa 1.1 m/s 65.1 mm
 04:37     20:58    Daglengte: 16:21 Donderdag 25 Aug
02:00 13.0° 1023.0 hPa 3.0 m/s 65.1 mm 13.0° 1023.0 hPa 3.0 m/s 65.1 mm
08:00 15.7° 1021.7 hPa 2.6 m/s 65.1 mm 15.7° 1021.7 hPa 2.6 m/s 65.1 mm
14:00 19.2° 1020.6 hPa 3.0 m/s 65.1 mm 19.2° 1020.6 hPa 3.0 m/s 65.1 mm
20:00 15.9° 1021.1 hPa 2.0 m/s 65.1 mm 15.9° 1021.1 hPa 2.0 m/s 65.1 mm
 04:41     20:53    Daglengte: 16:12 Vrijdag 26 Aug
02:00 14.1° 1021.5 hPa 3.1 m/s 65.1 mm 14.1° 1021.5 hPa 3.1 m/s 65.1 mm
08:00 16.3° 1021.1 hPa 2.9 m/s 65.1 mm 16.3° 1021.1 hPa 2.9 m/s 65.1 mm
14:00 14.2° 1024.5 hPa 1.3 m/s 65.4 mm 14.2° 1024.5 hPa 1.3 m/s 65.4 mm
20:00 13.9° 1027.3 hPa 1.4 m/s 67.0 mm 13.9° 1027.3 hPa 1.4 m/s 67.0 mm
 04:46     20:48    Daglengte: 16:02 Zaterdag 27 Aug
02:00 10.9° 1028.6 hPa 0.9 m/s 67.0 mm 10.9° 1028.6 hPa 0.9 m/s 67.0 mm
08:00 11.8° 1020.7 hPa 2.4 m/s 0.7 mm
14:00 14.0° 1020.4 hPa 2.5 m/s 0.4 mm
20:00 12.2° 1020.0 hPa 1.7 m/s 1.3 mm
 04:50     20:43    Daglengte: 15:53 Zondag 28 Aug
02:00 10.8° 1020.2 hPa 2.8 m/s 1.4 mm
08:00 11.5° 1020.6 hPa 2.7 m/s 1.2 mm
14:00 13.1° 1021.6 hPa 2.8 m/s 0.5 mm
20:00 11.2° 1021.5 hPa 1.7 m/s 1.0 mm
 04:54     20:38    Daglengte: 15:44 Maandag 29 Aug
02:00 10.1° 1021.1 hPa 1.6 m/s 0.7 mm
08:00 11.2° 1020.5 hPa 2.1 m/s 0.8 mm
14:00 12.9° 1020.1 hPa 2.8 m/s 0.8 mm
20:00 11.2° 1019.5 hPa 2.2 m/s 1.1 mm
 04:58     20:33    Daglengte: 15:35 Dinsdag 30 Aug
02:00 9.9° 1019.2 hPa 2.4 m/s 1.8 mm
08:00 10.3° 1018.8 hPa 2.8 m/s 1.2 mm
14:00 11.6° 1018.8 hPa 3.1 m/s 0.8 mm
20:00 10.0° 1017.8 hPa 2.5 m/s 1.2 mm
 05:02     20:29    Daglengte: 15:27 Woensdag 31 Aug
02:00 9.0° 1016.8 hPa 3.0 m/s 1.3 mm
08:00 10.1° 1015.8 hPa 2.4 m/s 1.2 mm
14:00 11.6° 1015.3 hPa 2.5 m/s 1.3 mm
20:00 9.9° 1014.6 hPa 1.6 m/s 1.3 mm
 05:06     20:24    Daglengte: 15:18 Donderdag 01 Sep
02:00 8.8° 1014.0 hPa 2.2 m/s 0.7 mm
08:00 9.8° 1012.9 hPa 2.0 m/s 0.5 mm
FMI Hirlam - 7.5 km EWN WRFDA - 12 km DWD ICON - 7 km GFS - 25 km Basiskaart